This demonstration page uses our WeatherBlox Daily Observations layout. Learn more.

Left ArrowRight Arrow

53.62937, 11.41316

Hourly Observations for June 13, 2019

Temp ( °F °C ) Dew Point ( °F °C ) Humidity (%) Winds ( mph kmh ) Pressure ( in mb ) Visibility ( mi km ) Precip ( " mm )
6:50 am 06:50 Mostly Sunny 57 14 55 13 94 94 SSE 3 6 29.88 1012 7 11 N/A
7:20 am 07:20 Mostly Sunny 59 15 55 13 88 88 S 5 7 29.88 1012 7 11 N/A
7:50 am 07:50 Mostly Sunny 59 15 55 13 88 88 S 5 7 29.88 1012 7 11 N/A
8:20 am 08:20 Mostly Sunny 61 16 55 13 83 83 S 7 11 29.91 1013 7 11 N/A
8:50 am 08:50 Mostly Sunny 64 18 57 14 78 78 SSE 7 11 29.91 1013 7 11 N/A
9:20 am 09:20 Mostly Sunny 64 18 55 13 73 73 SSE 6 9 29.91 1013 7 11 N/A
9:50 am 09:50 Mostly Sunny 64 18 55 13 73 73 SSE 6 9 29.91 1013 7 11 N/A
10:20 am 10:20 Mostly Sunny 66 19 57 14 73 73 S 7 11 29.91 1013 7 11 N/A
10:50 am 10:50 Mostly Sunny 68 20 55 13 64 64 SSE 9 15 29.91 1013 7 11 N/A
11:20 am 11:20 Mostly Sunny 70 21 55 13 60 60 SSE 9 15 29.91 1013 30 48 N/A
11:50 am 11:50 Mostly Sunny 70 21 55 13 60 60 S 9 15 29.91 1013 30 48 N/A
12:20 pm 12:20 Mostly Sunny 72 22 54 12 53 53 SSW 9 15 29.91 1013 30 48 N/A
12:50 pm 12:50 Mostly Sunny 70 21 52 11 53 53 SSW 13 20 29.91 1013 30 48 N/A
1:20 pm 13:20 Mostly Sunny 70 21 52 11 53 53 SSW 10 17 29.91 1013 7 11 N/A
1:50 pm 13:50 Mostly Sunny 72 22 50 10 47 47 SSW 12 19 29.91 1013 7 11 N/A
2:20 pm 14:20 Mostly Sunny 73 23 50 10 44 44 S 12 19 29.91 1013 7 11 N/A
2:50 pm 14:50 Mostly Sunny 72 22 52 11 50 50 S 9 15 29.91 1013 7 11 N/A
3:20 pm 15:20 Mostly Sunny 70 21 52 11 53 53 WSW 12 19 29.91 1013 7 11 N/A
3:50 pm 15:50 Mostly Sunny 72 22 55 13 57 57 WSW 7 11 29.91 1013 7 11 N/A
4:20 pm 16:20 Mostly Sunny 72 22 52 11 50 50 SSW 7 11 29.91 1013 7 11 N/A
4:50 pm 16:50 Mostly Cloudy with Light Rain 68 20 57 14 69 69 WSW 6 9 29.91 1013 30 48 N/A
5:20 pm 17:20 Mostly Sunny 72 22 55 13 57 57 W 7 11 29.91 1013 7 11 N/A
5:50 pm 17:50 Mostly Sunny 70 21 55 13 60 60 VRB 2 4 29.91 1013 7 11 N/A
6:20 pm 18:20 Mostly Sunny 73 23 55 13 53 53 VRB 2 4 29.88 1012 7 11 N/A
6:50 pm 18:50 Mostly Sunny 72 22 54 12 53 53 VRB 2 4 29.88 1012 7 11 N/A
7:20 pm 19:20 Mostly Sunny 70 21 57 14 64 64 VRB 1 2 29.88 1012 7 11 N/A
7:50 pm 19:50 Mostly Cloudy with Nearby Thunderstorms 64 18 52 11 64 64 WSW 14 22 29.91 1013 30 48 N/A
8:20 pm 20:20 Mostly Sunny 63 17 52 11 68 68 WNW 3 6 29.91 1013 7 11 N/A
8:50 pm 20:50 Mostly Sunny 64 18 54 12 68 68 VRB 1 2 29.91 1013 7 11 N/A

Powered by AerisWeather